Regional Weather Roundup
Issued by NWS Goodland, KS

Home | Current Version | Previous Version | Graphics & Text | Print | Product List | Glossary On
Versions: 1 2 3 4 5 6 7 8 9 10 11 12 13 14 15 16 17 18 19 20 21 22 23 24 25 26 27 28 29 30 31 32 33 34 35 36 37 38 39 40 41 42 43 44 45 46 47 48 49 50
000
ASUS43 KGLD 260408
RWRGLD

GOODLAND FORECAST AREA HOURLY WEATHER ROUNDUP
NATIONAL WEATHER SERVICE GOODLAND KS
1000 PM MDT MON JUL 25 2016

...OFFICIAL OBSERVATIONS...

CITY           SKY/WX    TMP DP  RH WIND       PRES   REMARKS
GOODLAND KS    CLOUDY    72  65  78 S8        30.16R
HILL CITY KS   CLEAR     72  66  81 SE3       30.12R
IMPERIAL NEB   CLEAR     72  63  73 S7        30.13R
MCCOOK NEB     CLEAR     74  63  68 SE9       30.12R
AKRON CO       CLOUDY    71  61  70 SE14      30.17R
BURLINGTON CO  CLOUDY    73  63  70 S14       30.18R
LIMON CO       NOT AVBL
$$

...UNOFFICIAL OBSERVATIONS...

CITY           SKY/WX    TMP DP  RH WIND       PRES   REMARKS
COLBY KS       CLEAR     73  68  83 SE10      30.17R
LENORA KS        N/A     71  32  23 MISG        N/A
NORTON KS      CLEAR     73  61  64 SE5       30.13
YUMA CO          N/A     69  64  85 SE5         N/A
$$




USA.gov is the U.S. government's official web portal to all federal, state and local government web resources and services.